{"data":{"norad_id":61191,"epoch":"2026-09-22T21:39:01.646496Z","epoch_age_seconds":87023,"freshness":"FRESH","line1":"1 61191U 24169C   26265.90210239  .00002032  00000+0  13077-3 0  9994","line2":"2 61191  97.5538 353.7571 0012694 339.6054  20.4666 15.09449383110563","mean_motion":15.09449383,"eccentricity":0.0012694,"inclination_deg":97.5538,"raan_deg":353.7571,"arg_perigee_deg":339.6054,"mean_anomaly_deg":20.4666,"bstar":0.00013077,"rev_number":11056,"period_min":95.399025380899,"perigee_km":529.1021818646,"apogee_km":546.66056931655,"semimajor_km":6916.0183755906,"source":"CELESTRAK","updated_at":"2026-09-23T09:00:20.812750Z"}}